FW4117 Weather Reports


Display with metric or nautical units.
time (UTC)temp
F
wind
direction
speed
MPH
gust
MPH
rain 1hr
in
rain 24hr
in
rain mn
in
humidity
%
barometer
mb
20260506015503 68 332 1.0 6.0 0.00 0.00 0.00 74 1007.2
20260506015003 68 330 1.0 6.0 0.00 0.00 0.00 74 1006.8
20260506014503 68 337 2.0 9.0 0.00 0.00 0.00 74 1006.5
20260506014003 68 344 2.0 9.0 0.00 0.00 0.00 73 1006.5
20260506013503 69 341 2.0 8.0 0.00 0.00 0.00 73 1006.5
20260506013003 69 341 1.0 6.0 0.00 0.00 0.00 72 1006.6
20260506012713 69 337 1.0 6.0 0.00 0.00 0.00 72 1006.4
20260506012003 70 340 2.0 8.0 0.00 0.00 0.00 72 1006.2
20260506011713 70 340 2.0 8.0 0.00 0.00 0.00 72 1005.8
20260506011214 70 338 2.0 8.0 0.00 0.00 0.00 71 1006.1
20260506010713 70 340 1.0 6.0 0.00 0.00 0.00 71 1006.0
20260506010003 71 337 1.0 6.0 0.00 0.00 0.00 72 1005.7
20260506005503 71 342 2.0 8.0 0.00 0.00 0.00 72 1005.4
20260506005003 72 338 2.0 11.0 0.00 0.00 0.00 71 1005.7
20260506004503 72 331 2.0 11.0 0.00 0.00 0.00 70 1005.6
20260506004003 72 335 1.0 8.0 0.00 0.00 0.00 71 1005.4
20260506003503 72 347 1.0 7.0 0.00 0.00 0.00 71 1005.3
20260506003003 73 338 1.0 9.0 0.00 0.00 0.00 70 1004.9
20260506002503 73 343 2.0 10.0 0.00 0.00 0.00 70 1005.1
20260506002003 74 350 2.0 10.0 0.00 0.00 0.00 70 1005.1
20260506001503 74 348 2.0 8.0 0.00 0.00 0.00 69 1004.9
20260506001003 75 342 1.0 7.0 0.00 0.00 0.00 69 1004.9
20260506000503 75 334 1.0 8.0 0.00 0.00 0.00 69 1004.9
20260506000003 75 341 1.0 8.0 0.00 0.00 0.00 68 1004.8
20260505235503 76 349 1.0 7.0 0.00 0.00 0.00 67 1004.9
20260505235003 76 350 2.0 10.0 0.00 0.00 0.00 67 1004.8
20260505234503 77 344 2.0 10.0 0.00 0.00 0.00 66 1004.8
20260505234003 78 337 1.0 8.0 0.00 0.00 0.00 66 1004.7
20260505233503 78 346 1.0 7.0 0.00 0.00 0.00 65 1004.7
20260505233003 78 349 1.0 7.0 0.00 0.00 0.00 65 1004.4
20260505232503 78 338 1.0 6.0 0.00 0.00 0.00 65 1004.4
20260505232213 79 344 1.0 10.0 0.00 0.00 0.00 64 1004.3
20260505231503 79 332 2.0 10.0 0.00 0.00 0.00 64 1004.6
20260505231003 80 321 2.0 10.0 0.00 0.00 0.00 63 1004.3
20260505230712 80 329 1.0 8.0 0.00 0.00 0.00 63 1004.2
20260505230003 81 317 2.0 8.0 0.00 0.00 0.00 62 1004.1
20260505225503 81 307 1.0 8.0 0.00 0.00 0.00 61 1004.1
20260505225003 82 320 1.0 8.0 0.00 0.00 0.00 60 1004.2
20260505224503 82 324 1.0 5.0 0.00 0.00 0.00 60 1004.0
20260505224003 82 336 2.0 8.0 0.00 0.00 0.00 60 1003.7
20260505223503 83 332 2.0 8.0 0.00 0.00 0.00 60 1003.6
20260505223003 83 315 1.0 6.0 0.00 0.00 0.00 60 1003.6
20260505222503 84 296 2.0 8.0 0.00 0.00 0.00 60 1003.7
20260505222003 84 298 2.0 8.0 0.00 0.00 0.00 59 1003.6
20260505221503 85 325 1.0 8.0 0.00 0.00 0.00 57 1003.5
20260505221003 86 323 1.0 7.0 0.00 0.00 0.00 58 1003.3
20260505220714 86 306 1.0 6.0 0.00 0.00 0.00 56 1003.4
20260505220003 87 328 1.0 6.0 0.00 0.00 0.00 53 1003.4
20260505215503 87 319 1.0 5.0 0.00 0.00 0.00 52 1003.3
20260505215213 87 311 1.0 6.0 0.00 0.00 0.00 52 1003.2
20260505214503 87 312 2.0 7.0 0.00 0.00 0.00 50 1003.3
20260505214003 88 310 1.0 7.0 0.00 0.00 0.00 49 1003.6
20260505213503 89 297 2.0 10.0 0.00 0.00 0.00 48 1003.5
20260505213003 89 274 2.0 10.0 0.00 0.00 0.00 50 1003.4
20260505212713 89 279 2.0 8.0 0.00 0.00 0.00 50 1003.4
20260505212213 88 303 1.0 8.0 0.00 0.00 0.00 49 1003.3
20260505211503 89 326 1.0 5.0 0.00 0.00 0.00 50 1003.3
20260505211213 89 296 2.0 11.0 0.00 0.00 0.00 49 1003.4
20260505210503 90 266 3.0 11.0 0.00 0.00 0.00 50 1003.4
20260505210003 92 256 3.0 10.0 0.00 0.00 0.00 53 1003.5
20260505205503 91 245 3.0 10.0 0.00 0.00 0.00 53 1003.3
20260505205003 92 231 3.0 8.0 0.00 0.00 0.00 54 1003.3
20260505204503 92 212 3.0 8.0 0.00 0.00 0.00 53 1003.4
20260505204003 92 208 4.0 9.0 0.00 0.00 0.00 52 1003.5
20260505203503 92 215 3.0 9.0 0.00 0.00 0.00 53 1003.5
20260505203003 92 214 3.0 9.0 0.00 0.00 0.00 53 1003.6
20260505202503 91 228 3.0 9.0 0.00 0.00 0.00 55 1003.7
20260505202003 91 214 4.0 11.0 0.00 0.00 0.00 54 1003.6
20260505201503 91 225 4.0 11.0 0.00 0.00 0.00 54 1003.6
20260505201003 91 247 4.0 11.0 0.00 0.00 0.00 55 1003.7
20260505200503 90 231 5.0 10.0 0.00 0.00 0.00 54 1003.9
20260505200003 91 210 4.0 13.0 0.00 0.00 0.00 54 1003.8
20260505195503 90 205 3.0 13.0 0.00 0.00 0.00 57 1003.8
20260505195003 90 213 3.0 9.0 0.00 0.00 0.00 57 1003.9
20260505194503 90 223 4.0 12.0 0.00 0.00 0.00 56 1004.0
20260505194003 89 208 4.0 12.0 0.00 0.00 0.00 57 1003.9
20260505193713 89 208 4.0 12.0 0.00 0.00 0.00 57 1003.9
20260505193003 89 219 4.0 11.0 0.00 0.00 0.00 59 1004.0
20260505192503 89 220 4.0 8.0 0.00 0.00 0.00 59 1004.0
20260505192003 89 222 4.0 11.0 0.00 0.00 0.00 60 1004.1
20260505191713 88 217 4.0 11.0 0.00 0.00 0.00 61 1003.7
20260505191003 88 211 4.0 11.0 0.00 0.00 0.00 62 1003.7
20260505190503 88 211 4.0 11.0 0.00 0.00 0.00 62 1003.9
20260505190003 88 204 3.0 10.0 0.00 0.00 0.00 63 1003.9
20260505185503 88 203 4.0 9.0 0.00 0.00 0.00 64 1003.9
20260505185003 87 209 4.0 11.0 0.00 0.00 0.00 64 1003.7
20260505184503 87 197 4.0 11.0 0.00 0.00 0.00 65 1003.9
20260505184003 86 192 4.0 12.0 0.00 0.00 0.00 65 1003.9
20260505183503 85 201 4.0 12.0 0.00 0.00 0.00 66 1003.9
20260505183213 85 198 4.0 11.0 0.00 0.00 0.00 66 1004.0
20260505182503 85 188 4.0 12.0 0.00 0.00 0.00 66 1004.0
20260505182213 85 197 4.0 13.0 0.00 0.00 0.00 67 1004.0
20260505181503 85 169 5.0 13.0 0.00 0.00 0.00 66 1004.0
20260505181003 85 148 4.0 11.0 0.00 0.00 0.00 68 1003.9
20260505180712 85 153 4.0 11.0 0.00 0.00 0.00 67 1003.9
20260505180003 85 193 4.0 11.0 0.00 0.00 0.00 67 1004.1
20260505175503 85 189 5.0 13.0 0.00 0.00 0.00 66 1004.2
20260505175003 85 193 5.0 13.0 0.00 0.00 0.00 66 1004.2
20260505174503 85 183 5.0 12.0 0.00 0.00 0.00 67 1004.1
20260505174003 85 189 5.0 12.0 0.00 0.00 0.00 67 1004.0
20260505173503 84 181 5.0 13.0 0.00 0.00 0.00 68 1004.1
20260505173003 84 158 5.0 13.0 0.00 0.00 0.00 68 1004.0
20260505172503 84 167 5.0 12.0 0.00 0.00 0.00 68 1004.0
20260505172213 84 155 5.0 12.0 0.00 0.00 0.00 68 1004.0
20260505171503 84 167 5.0 11.0 0.00 0.00 0.00 69 1004.0
20260505171003 84 181 5.0 10.0 0.00 0.00 0.00 69 1004.1
20260505170503 83 190 4.0 10.0 0.00 0.00 0.00 69 1004.1
20260505170003 83 184 4.0 10.0 0.00 0.00 0.00 69 1004.0
20260505165503 83 198 4.0 11.0 0.00 0.00 0.00 71 1004.1
20260505165003 82 186 5.0 11.0 0.00 0.00 0.00 71 1004.1
20260505164503 82 182 4.0 11.0 0.00 0.00 0.00 72 1004.2
20260505164213 81 193 5.0 11.0 0.00 0.00 0.00 72 1004.1
20260505163503 81 205 5.0 11.0 0.00 0.00 0.00 73 1004.0
20260505163003 81 175 5.0 14.0 0.00 0.00 0.00 72 1004.1
20260505162503 80 151 5.0 14.0 0.00 0.00 0.00 72 1004.0
20260505162003 81 150 5.0 13.0 0.00 0.00 0.00 72 1004.0
20260505161503 81 156 5.0 14.0 0.00 0.00 0.00 73 1004.0
20260505161003 81 171 4.0 14.0 0.00 0.00 0.00 73 1004.0
20260505160503 80 169 4.0 9.0 0.00 0.00 0.00 74 1003.8
20260505153003 78 174 4.0 11.0 0.00 0.00 0.00 78 1003.9
20260505152503 77 178 4.0 11.0 0.00 0.00 0.00 78 1003.7
20260505152212 77 179 4.0 13.0 0.00 0.00 0.00 78 1003.8
20260505151713 77 152 5.0 13.0 0.00 0.00 0.00 78 1003.7
20260505151003 77 157 4.0 9.0 0.00 0.00 0.00 78 1003.6
20260505150503 77 141 4.0 9.0 0.00 0.00 0.00 78 1003.7
20260505140503 74 148 4.0 12.0 0.00 0.00 0.00 83 1003.6
20260505140214 74 152 4.0 12.0 0.00 0.00 0.00 83 1003.4
20260505130213 72 144 4.0 11.0 0.00 0.00 0.00 86 1003.2
20260505124503 71 155 3.0 9.0 0.00 0.00 0.00 88 1003.5
20260505124003 71 151 3.0 8.0 0.00 0.00 0.00 88 1003.4
20260505123503 71 157 3.0 9.0 0.00 0.00 0.00 88 1003.2
20260505123213 71 148 3.0 9.0 0.00 0.00 0.00 88 1003.1
20260505122503 70 157 3.0 8.0 0.00 0.00 0.00 88 1003.2
20260505122003 70 161 3.0 8.0 0.00 0.00 0.00 89 1003.1
20260505121503 70 157 2.0 7.0 0.00 0.00 0.00 88 1002.9
20260505121003 70 144 3.0 9.0 0.00 0.00 0.00 88 1002.9
20260505120503 70 144 3.0 10.0 0.00 0.00 0.00 88 1002.8
20260505120003 70 151 3.0 10.0 0.00 0.00 0.00 88 1002.7
20260505115503 70 148 3.0 9.0 0.00 0.00 0.00 88 1002.8
20260505115003 70 143 3.0 12.0 0.00 0.00 0.00 88 1002.9
20260505114503 70 152 4.0 12.0 0.00 0.00 0.00 88 1002.7
20260505114003 70 162 3.0 10.0 0.00 0.00 0.00 88 1002.7
20260505113503 70 157 4.0 11.0 0.00 0.00 0.00 88 1002.6
20260505113003 70 156 4.0 11.0 0.00 0.00 0.00 88 1002.6
20260505112503 70 155 4.0 11.0 0.00 0.00 0.00 88 1002.5
20260505112213 70 162 4.0 10.0 0.00 0.00 0.00 88 1002.5
20260505111503 70 157 4.0 14.0 0.00 0.00 0.00 88 1002.5
20260505111003 70 160 4.0 11.0 0.00 0.00 0.00 88 1002.5
20260505110503 70 162 4.0 12.0 0.00 0.00 0.00 88 1002.5
20260505102003 70 148 5.0 14.0 0.00 0.00 0.00 87 1002.5
20260505101503 70 167 5.0 13.0 0.00 0.00 0.00 87 1002.5
20260505101003 70 158 5.0 14.0 0.00 0.00 0.00 87 1002.5
20260505100503 70 148 5.0 14.0 0.00 0.00 0.00 87 1002.5
20260505100003 70 146 5.0 13.0 0.00 0.00 0.00 87 1002.5
20260505095503 71 148 6.0 12.0 0.00 0.00 0.00 87 1002.6
20260505095003 71 146 5.0 12.0 0.00 0.00 0.00 86 1002.6
20260505094713 71 148 5.0 12.0 0.00 0.00 0.00 86 1002.7
20260505094003 71 150 5.0 11.0 0.00 0.00 0.00 86 1002.5
20260505093503 71 153 5.0 12.0 0.00 0.00 0.00 86 1002.5
20260505093003 71 156 5.0 13.0 0.00 0.00 0.00 86 1002.6
20260505092503 71 157 6.0 14.0 0.00 0.00 0.00 85 1002.7
20260505092003 71 171 6.0 14.0 0.00 0.00 0.00 85 1002.7
20260505091503 72 167 7.0 15.0 0.00 0.00 0.00 85 1002.7
20260505091003 72 152 6.0 15.0 0.00 0.00 0.00 84 1002.7
20260505090503 72 155 6.0 17.0 0.00 0.00 0.00 84 1002.8
20260505090003 72 140 6.0 19.0 0.00 0.00 0.00 84 1002.9
20260505085713 72 137 7.0 19.0 0.00 0.00 0.00 84 1002.9
20260505085003 72 146 7.0 15.0 0.00 0.00 0.00 83 1002.9
20260505084503 72 143 6.0 15.0 0.00 0.00 0.00 83 1002.9
20260505084003 72 140 6.0 14.0 0.00 0.00 0.00 82 1003.0
20260505083503 72 138 6.0 14.0 0.00 0.00 0.00 82 1003.1
20260505083003 73 136 6.0 13.0 0.00 0.00 0.00 82 1003.0
20260505082503 73 135 5.0 13.0 0.00 0.00 0.00 81 1003.1
20260505082003 73 139 6.0 15.0 0.00 0.00 0.00 81 1003.1
20260505081713 73 135 6.0 15.0 0.00 0.00 0.00 81 1003.0
20260505081003 73 136 6.0 11.0 0.00 0.00 0.00 80 1002.8
20260505080503 73 144 6.0 14.0 0.00 0.00 0.00 80 1003.0
20260505080003 73 157 6.0 14.0 0.00 0.00 0.00 80 1003.0
20260505075503 73 147 6.0 16.0 0.00 0.00 0.00 80 1003.0
20260505075003 73 139 5.0 16.0 0.00 0.00 0.00 79 1002.9
20260505074503 73 143 5.0 14.0 0.00 0.00 0.00 79 1003.0
20260505074213 73 131 6.0 15.0 0.00 0.00 0.00 78 1003.0
20260505073503 74 137 7.0 17.0 0.00 0.00 0.00 78 1003.1
20260505073003 74 139 6.0 17.0 0.00 0.00 0.00 78 1003.3
20260505072712 74 144 6.0 17.0 0.00 0.00 0.00 78 1003.4
20260505072003 74 155 6.0 15.0 0.00 0.00 0.00 77 1003.5
20260505071503 74 148 6.0 15.0 0.00 0.00 0.00 77 1003.6
20260505071003 74 139 6.0 15.0 0.00 0.00 0.00 77 1003.7
20260505070503 74 150 7.0 15.0 0.00 0.00 0.00 76 1003.8
20260505070213 74 158 6.0 15.0 0.00 0.00 0.00 76 1003.8
20260505065503 74 152 6.0 15.0 0.00 0.00 0.00 76 1003.9
20260505065003 74 152 5.0 12.0 0.00 0.00 0.00 75 1004.0
20260505064503 74 148 6.0 16.0 0.00 0.00 0.00 75 1004.1
20260505064213 74 147 6.0 16.0 0.00 0.00 0.00 75 1004.2
20260505063503 74 156 5.0 14.0 0.00 0.00 0.00 75 1004.3
20260505063003 74 146 5.0 14.0 0.00 0.00 0.00 75 1004.3
20260505062503 75 140 5.0 11.0 0.00 0.00 0.00 74 1004.3
20260505062213 75 151 5.0 11.0 0.00 0.00 0.00 74 1004.4
20260505061503 75 160 5.0 14.0 0.00 0.00 0.00 74 1004.4
20260505061003 75 154 5.0 11.0 0.00 0.00 0.00 74 1004.4
20260505060503 75 153 5.0 14.0 0.00 0.00 0.00 73 1004.3
20260505060003 75 141 5.0 14.0 0.00 0.00 0.00 73 1004.4
20260505055503 75 134 6.0 13.0 0.00 0.00 0.00 73 1004.3
20260505055003 76 137 5.0 16.0 0.00 0.00 0.00 73 1004.4
20260505054503 76 145 5.0 16.0 0.00 0.00 0.00 72 1004.4
20260505054212 76 142 6.0 16.0 0.00 0.00 0.00 72 1004.5
20260505053503 76 136 5.0 14.0 0.00 0.00 0.00 72 1004.2
20260505053213 76 138 5.0 14.0 0.00 0.00 0.00 72 1004.3
20260505052503 76 140 5.0 12.0 0.00 0.00 0.00 72 1004.4
20260505052003 76 139 6.0 13.0 0.00 0.00 0.00 72 1004.5
20260505051503 76 134 6.0 13.0 0.00 0.00 0.00 72 1004.4
20260505051213 76 127 5.0 13.0 0.00 0.00 0.00 72 1004.4
20260505050503 76 129 5.0 13.0 0.00 0.00 0.00 72 1004.4
20260505041503 76 120 6.0 15.0 0.00 0.00 0.00 72 1005.0
20260505041003 76 117 6.0 13.0 0.00 0.00 0.00 72 1004.9
20260505040503 76 120 6.0 17.0 0.00 0.00 0.00 72 1004.9
20260505040003 76 127 7.0 17.0 0.00 0.00 0.00 72 1004.9
20260505035503 76 135 6.0 12.0 0.00 0.00 0.00 72 1004.9
20260505035003 76 134 5.0 14.0 0.00 0.00 0.00 72 1004.9
20260505034503 76 125 6.0 14.0 0.00 0.00 0.00 73 1005.0
20260505034003 76 122 6.0 13.0 0.00 0.00 0.00 73 1005.0
20260505033503 76 121 5.0 17.0 0.00 0.00 0.00 73 1004.8
20260505033003 76 121 6.0 17.0 0.00 0.00 0.00 72 1004.9
20260505032503 76 122 7.0 17.0 0.00 0.00 0.00 73 1005.0
20260505032003 76 121 6.0 11.0 0.00 0.00 0.00 72 1004.8
20260505031503 76 121 5.0 12.0 0.00 0.00 0.00 72 1004.7
20260505031214 76 120 5.0 12.0 0.00 0.00 0.00 72 1004.8
20260505030503 76 117 5.0 11.0 0.00 0.00 0.00 72 1004.8
20260505030003 76 125 5.0 11.0 0.00 0.00 0.00 72 1004.9
20260505025712 76 128 5.0 11.0 0.00 0.00 0.00 72 1004.9
20260505025003 76 130 5.0 11.0 0.00 0.00 0.00 72 1005.1
20260505024503 76 125 5.0 16.0 0.00 0.00 0.00 72 1005.0
20260505024003 76 123 5.0 16.0 0.00 0.00 0.00 72 1005.0
20260505023712 76 128 5.0 16.0 0.00 0.00 0.00 72 1005.0
20260505023003 76 125 5.0 11.0 0.00 0.00 0.00 72 1005.0
20260505022503 76 125 5.0 11.0 0.00 0.00 0.00 72 1004.9
20260505022003 76 125 5.0 10.0 0.00 0.00 0.00 72 1005.0
20260505021503 76 115 5.0 12.0 0.00 0.00 0.00 72 1004.9
20260505021003 76 115 5.0 12.0 0.00 0.00 0.00 71 1004.8
20260505020503 76 125 5.0 11.0 0.00 0.00 0.00 71 1004.7
20260505020213 76 125 5.0 11.0 0.00 0.00 0.00 71 1004.9
20260505015712 76 123 5.0 12.0 0.00 0.00 0.00 71 1004.8